Location: Recife
(8.0585°S, 34.8848°W)
Time: 11:06:06
(UTC-03:00)

Vanguard 2 - Pass Details

Date: 15 April 2026
Orbit: 554 x 2894 km, 32.9° (Epoch: 7 May)

Event Time Altitude Azimuth Distance (km) Brightness Sun altitude
Rises 08:16:02 0° 259° (W) 4,508 11.0 40.9°
Reaches altitude 10° 08:20:49 10° 278° (W) 3,032 10.3 42.0°
Maximum altitude 08:25:02 16° 314° (NW) 2,172 9.8 43.0°
Drops below altitude 10° 08:28:23 10° 354° (N) 2,295 10.3 43.8°
Sets 08:31:19 0° 17° (NNE) 2,982 11.0 44.4°
